Simultaneous Nadir Overpasses (SNOs) Predictions

Prediction of SNOs between AQUA and NPP Satellite Orbit:

Table of predicted SNOs for the next 14.0 days since TLE Epoch: 6/8/2024
Index Date (AQUA) Time (AQUA) Lat,Lon (AQUA) SZA (AQUA ) Date (NPP) Time (NPP) Lat,Lon (NPP) SZA (NPP ) Distance(km) Time Diff (sec)
1 06/08/2024 15:18:16 -81.23, 53.69 114.70 06/08/2024 15:18:00 -81.24, 53.68 114.68 0.66 16
2 06/08/2024 16:07:37 81.25,-138.32 65.26 06/08/2024 16:08:43 81.25,-138.37 65.23 0.91 66
3 06/11/2024 03:21:58 81.23, 52.77 65.14 06/11/2024 03:21:06 81.23, 52.68 65.19 1.58 52
4 06/11/2024 04:11:19 -81.25,-139.13 114.93 06/11/2024 04:11:49 -81.25,-139.18 114.94 0.80 30
5 06/13/2024 16:14:58 81.25,-139.97 64.94 06/13/2024 16:14:53 81.25,-139.88 64.93 1.55 5
6 06/16/2024 04:18:38 -81.24,-141.18 115.10 06/16/2024 04:18:00 -81.24,-141.19 115.08 0.48 38
7 06/16/2024 05:07:59 81.25, 26.66 64.88 06/16/2024 05:08:43 81.25, 26.72 64.84 1.24 44
8 06/18/2024 16:22:14 81.25,-141.81 64.83 06/18/2024 16:21:04 81.25,-141.67 64.85 2.42 70
9 06/18/2024 17:11:36 -81.26, 25.99 115.20 06/18/2024 17:11:48 -81.26, 26.11 115.23 1.98 12
10 06/21/2024 05:15:11 81.25, 25.08 64.81 06/21/2024 05:14:53 81.25, 25.17 64.81 1.52 18



Historial Predications of SNOs between AQUA and NPP
